Time,TemperatureF,DewpointF,PressureIn,WindDirection,WindDirectionDegrees,WindSpeedMPH,WindSpeedGustMPH,Humidity,HourlyPrecipIn,Conditions,Clouds,dailyrainin,SolarRadiationWatts/m^2,SoftwareType,DateUTC
2013-06-27 00:01:00,56.0,51.0,-100.00,NNE,27,1.0,6.0,84,0.00,,,0.05,0.000000,,2013-06-27 06:01:00,
2013-06-27 00:12:00,56.0,51.0,-100.00,NNE,27,1.0,6.0,84,0.00,,,0.05,0.000000,,2013-06-27 06:12:00,
2013-06-27 00:22:00,56.0,51.0,-100.00,NNE,27,1.0,6.0,84,0.00,,,0.05,0.000000,,2013-06-27 06:22:00,
2013-06-27 00:53:00,55.0,52.0,-100.00,North,9,0.0,17.0,89,0.01,,,0.06,0.000000,,2013-06-27 06:53:00,
2013-06-27 01:02:00,55.0,52.0,-100.00,North,9,0.0,17.0,89,0.01,,,0.06,0.000000,,2013-06-27 07:02:00,
2013-06-27 01:12:00,55.0,52.0,-100.00,North,9,0.0,17.0,89,0.01,,,0.06,0.000000,,2013-06-27 07:12:00,
2013-06-27 01:22:00,55.0,52.0,-100.00,North,9,0.0,17.0,89,0.01,,,0.06,0.000000,,2013-06-27 07:22:00,
2013-06-27 01:52:00,53.0,50.0,-100.00,NE,43,0.0,6.0,89,0.00,,,0.06,0.000000,,2013-06-27 07:52:00,
2013-06-27 02:01:00,53.0,50.0,-100.00,NE,43,0.0,6.0,89,0.00,,,0.06,0.000000,,2013-06-27 08:01:00,
2013-06-27 02:11:00,53.0,50.0,-100.00,NE,43,0.0,6.0,89,0.00,,,0.06,0.000000,,2013-06-27 08:11:00,
2013-06-27 02:22:00,53.0,50.0,-100.00,NE,43,0.0,6.0,89,0.00,,,0.06,0.000000,,2013-06-27 08:22:00,
2013-06-27 02:52:00,53.0,49.0,-100.00,East,91,0.0,6.0,87,0.00,,,0.06,0.000000,,2013-06-27 08:52:00,
2013-06-27 03:02:00,53.0,49.0,-100.00,East,91,0.0,6.0,87,0.00,,,0.06,0.000000,,2013-06-27 09:02:00,
2013-06-27 03:11:00,53.0,49.0,-100.00,East,91,0.0,6.0,87,0.00,,,0.06,0.000000,,2013-06-27 09:11:00,
2013-06-27 03:22:00,53.0,49.0,-100.00,East,91,0.0,6.0,87,0.00,,,0.06,0.000000,,2013-06-27 09:22:00,
2013-06-27 03:53:00,51.0,48.0,-100.00,East,79,0.0,7.0,90,0.00,,,0.06,0.000000,,2013-06-27 09:53:00,
2013-06-27 04:01:00,51.0,48.0,-100.00,East,79,0.0,7.0,90,0.00,,,0.06,0.000000,,2013-06-27 10:01:00,
2013-06-27 04:11:00,51.0,48.0,-100.00,East,79,0.0,7.0,90,0.00,,,0.06,0.000000,,2013-06-27 10:11:00,
2013-06-27 04:22:00,51.0,48.0,-100.00,East,79,0.0,7.0,90,0.00,,,0.06,0.000000,,2013-06-27 10:22:00,
2013-06-27 04:54:00,51.0,50.0,-100.00,NNE,15,0.0,3.0,97,0.00,,,0.06,0.000000,,2013-06-27 10:54:00,
2013-06-27 05:01:00,51.0,50.0,-100.00,NNE,15,0.0,3.0,97,0.00,,,0.06,0.000000,,2013-06-27 11:01:00,
2013-06-27 05:11:00,51.0,50.0,-100.00,NNE,15,0.0,3.0,97,0.00,,,0.06,0.000000,,2013-06-27 11:11:00,
2013-06-27 05:21:00,51.0,50.0,-100.00,NNE,15,0.0,3.0,97,0.00,,,0.06,0.000000,,2013-06-27 11:21:00,
2013-06-27 05:52:00,48.0,48.0,-100.00,SE,125,0.0,4.0,100,0.00,,,0.04,0.000000,,2013-06-27 11:52:00,
2013-06-27 06:01:00,48.0,48.0,-100.00,SE,125,0.0,4.0,100,0.00,,,0.04,0.000000,,2013-06-27 12:01:00,
2013-06-27 06:11:00,48.0,48.0,-100.00,SE,125,0.0,4.0,100,0.00,,,0.04,0.000000,,2013-06-27 12:11:00,
2013-06-27 06:22:00,48.0,48.0,-100.00,SE,125,0.0,4.0,100,0.00,,,0.04,0.000000,,2013-06-27 12:22:00,
2013-06-27 07:01:00,48.0,48.0,-100.00,West,265,0.0,0.0,100,0.00,,,0.04,0.000000,,2013-06-27 13:01:00,
2013-06-27 07:11:00,48.0,48.0,-100.00,West,265,0.0,0.0,100,0.00,,,0.04,0.000000,,2013-06-27 13:11:00,
2013-06-27 07:22:00,48.0,48.0,-100.00,West,265,0.0,0.0,100,0.00,,,0.04,0.000000,,2013-06-27 13:22:00,
2013-06-27 08:01:00,47.0,47.0,-100.00,East,87,0.0,4.0,100,0.00,,,0.04,14.000000,,2013-06-27 14:01:00,
2013-06-27 08:11:00,47.0,47.0,-100.00,East,87,0.0,4.0,100,0.00,,,0.04,14.000000,,2013-06-27 14:11:00,
2013-06-27 08:22:00,47.0,47.0,-100.00,East,87,0.0,4.0,100,0.00,,,0.04,14.000000,,2013-06-27 14:22:00,
2013-06-27 08:52:00,50.0,50.0,-100.00,NNW,334,0.0,2.0,100,0.00,,,0.04,47.000000,,2013-06-27 14:52:00,
2013-06-27 09:01:00,50.0,50.0,-100.00,NNW,334,0.0,2.0,100,0.00,,,0.04,47.000000,,2013-06-27 15:01:00,
2013-06-27 09:11:00,50.0,50.0,-100.00,NNW,334,0.0,2.0,100,0.00,,,0.04,47.000000,,2013-06-27 15:11:00,
2013-06-27 09:22:00,50.0,50.0,-100.00,NNW,334,0.0,2.0,100,0.00,,,0.04,47.000000,,2013-06-27 15:22:00,
2013-06-27 10:02:00,53.0,51.0,-100.00,WNW,295,0.0,3.0,92,0.01,,,0.05,122.000000,,2013-06-27 16:02:00,
2013-06-27 10:11:00,53.0,51.0,-100.00,WNW,295,0.0,3.0,92,0.01,,,0.05,122.000000,,2013-06-27 16:11:00,
2013-06-27 10:23:00,53.0,51.0,-100.00,WNW,295,0.0,3.0,92,0.01,,,0.05,122.000000,,2013-06-27 16:23:00,
2013-06-27 10:53:00,64.0,54.0,-100.00,WNW,297,1.0,6.0,69,-99.99,,,0.05,572.000000,,2013-06-27 16:53:00,
2013-06-27 11:01:00,64.0,54.0,-100.00,WNW,297,1.0,6.0,69,-99.99,,,0.05,572.000000,,2013-06-27 17:01:00,
2013-06-27 11:11:00,64.0,54.0,-100.00,WNW,297,1.0,6.0,69,-99.99,,,0.05,572.000000,,2013-06-27 17:11:00,
2013-06-27 11:22:00,64.0,54.0,-100.00,WNW,297,1.0,6.0,69,-99.99,,,0.05,572.000000,,2013-06-27 17:22:00,
2013-06-27 11:53:00,66.0,52.0,-100.00,WNW,290,4.0,5.0,61,0.00,,,0.05,732.000000,,2013-06-27 17:53:00,
2013-06-27 12:01:00,66.0,52.0,-100.00,WNW,290,4.0,5.0,61,0.00,,,0.05,732.000000,,2013-06-27 18:01:00,
2013-06-27 12:11:00,66.0,52.0,-100.00,WNW,290,4.0,5.0,61,0.00,,,0.05,732.000000,,2013-06-27 18:11:00,
2013-06-27 12:22:00,66.0,52.0,-100.00,WNW,290,4.0,5.0,61,0.00,,,0.05,732.000000,,2013-06-27 18:22:00,
2013-06-27 13:53:00,79.0,50.0,-100.00,WNW,285,5.0,8.0,36,0.00,,,0.05,916.000000,,2013-06-27 19:53:00,
2013-06-27 14:01:00,79.0,50.0,-100.00,WNW,285,5.0,8.0,36,0.00,,,0.05,916.000000,,2013-06-27 20:01:00,
2013-06-27 14:11:00,79.0,50.0,-100.00,WNW,285,5.0,8.0,36,0.00,,,0.05,916.000000,,2013-06-27 20:11:00,
2013-06-27 14:22:00,79.0,50.0,-100.00,WNW,285,5.0,8.0,36,0.00,,,0.05,916.000000,,2013-06-27 20:22:00,
2013-06-27 14:54:00,81.0,48.0,-100.00,WNW,286,7.0,11.0,32,0.00,,,0.05,958.000000,,2013-06-27 20:54:00,
2013-06-27 15:02:00,81.0,48.0,-100.00,WNW,286,7.0,11.0,32,0.00,,,0.05,958.000000,,2013-06-27 21:02:00,
2013-06-27 15:13:00,81.0,48.0,-100.00,WNW,286,7.0,11.0,32,0.00,,,0.05,958.000000,,2013-06-27 21:13:00,
2013-06-27 15:23:00,81.0,48.0,-100.00,WNW,286,7.0,11.0,32,0.00,,,0.05,958.000000,,2013-06-27 21:23:00,
2013-06-27 16:04:00,82.0,47.0,-100.00,WNW,285,5.0,12.0,29,0.00,,,0.02,960.000000,,2013-06-27 22:04:00,
2013-06-27 16:13:00,82.0,47.0,-100.00,WNW,285,5.0,12.0,29,0.00,,,0.02,960.000000,,2013-06-27 22:13:00,
2013-06-27 16:22:00,82.0,47.0,-100.00,WNW,285,5.0,12.0,29,0.00,,,0.02,960.000000,,2013-06-27 22:22:00,
2013-06-27 16:57:00,83.0,46.0,-100.00,West,274,5.0,13.0,27,0.00,,,0.02,909.000000,,2013-06-27 22:57:00,
2013-06-27 17:03:00,83.0,46.0,-100.00,West,274,5.0,13.0,27,0.00,,,0.02,909.000000,,2013-06-27 23:03:00,
2013-06-27 17:23:00,83.0,46.0,-100.00,West,274,5.0,13.0,27,0.00,,,0.02,909.000000,,2013-06-27 23:23:00,
2013-06-27 17:57:00,85.0,48.0,-100.00,WNW,285,5.0,12.0,28,0.00,,,0.02,735.000000,,2013-06-27 23:57:00,
2013-06-27 18:13:00,85.0,48.0,-100.00,WNW,285,5.0,12.0,28,0.00,,,0.02,735.000000,,2013-06-28 00:13:00,
2013-06-27 18:25:00,85.0,48.0,-100.00,WNW,285,5.0,12.0,28,0.00,,,0.02,735.000000,,2013-06-28 00:25:00,
2013-06-27 18:56:00,86.0,46.0,-100.00,WSW,247,2.0,15.0,25,0.00,,,0.02,595.000000,,2013-06-28 00:56:00,
2013-06-27 19:04:00,86.0,46.0,-100.00,WSW,247,2.0,15.0,25,0.00,,,0.02,595.000000,,2013-06-28 01:04:00,
2013-06-27 19:12:00,86.0,46.0,-100.00,WSW,247,2.0,15.0,25,0.00,,,0.02,595.000000,,2013-06-28 01:12:00,
2013-06-27 19:23:00,86.0,46.0,-100.00,WSW,247,2.0,15.0,25,0.00,,,0.02,595.000000,,2013-06-28 01:23:00,
2013-06-27 19:56:00,86.0,47.0,-100.00,West,275,4.0,14.0,26,0.00,,,0.02,457.000000,,2013-06-28 01:56:00,
2013-06-27 20:04:00,86.0,47.0,-100.00,West,275,4.0,14.0,26,0.00,,,0.02,457.000000,,2013-06-28 02:04:00,
2013-06-27 20:13:00,86.0,47.0,-100.00,West,275,4.0,14.0,26,0.00,,,0.02,457.000000,,2013-06-28 02:13:00,
2013-06-27 20:23:00,86.0,47.0,-100.00,West,275,4.0,14.0,26,0.00,,,0.02,457.000000,,2013-06-28 02:23:00,
2013-06-27 20:57:00,83.0,48.0,-100.00,West,280,4.0,11.0,30,0.00,,,0.02,286.000000,,2013-06-28 02:57:00,
2013-06-27 21:03:00,83.0,48.0,-100.00,West,280,4.0,11.0,30,0.00,,,0.02,286.000000,,2013-06-28 03:03:00,
2013-06-27 21:13:00,83.0,48.0,-100.00,West,280,4.0,11.0,30,0.00,,,0.02,286.000000,,2013-06-28 03:13:00,
2013-06-27 21:23:00,83.0,48.0,-100.00,West,280,4.0,11.0,30,0.00,,,0.02,286.000000,,2013-06-28 03:23:00,
2013-06-27 21:56:00,78.0,52.0,-100.00,SSE,157,1.0,9.0,40,0.00,,,0.02,117.000000,,2013-06-28 03:56:00,
2013-06-27 22:02:00,78.0,52.0,-100.00,SSE,157,1.0,9.0,40,0.00,,,0.02,117.000000,,2013-06-28 04:02:00,
2013-06-27 22:11:00,78.0,52.0,-100.00,SSE,157,1.0,9.0,40,0.00,,,0.02,117.000000,,2013-06-28 04:11:00,
2013-06-27 22:22:00,78.0,52.0,-100.00,SSE,157,1.0,9.0,40,0.00,,,0.02,117.000000,,2013-06-28 04:22:00,
2013-06-27 22:53:00,68.0,50.0,-100.00,SSE,149,0.0,6.0,52,0.00,,,0.02,3.000000,,2013-06-28 04:53:00,
2013-06-27 23:01:00,68.0,50.0,-100.00,SSE,149,0.0,6.0,52,0.00,,,0.02,3.000000,,2013-06-28 05:01:00,
2013-06-27 23:11:00,68.0,50.0,-100.00,SSE,149,0.0,6.0,52,0.00,,,0.02,3.000000,,2013-06-28 05:11:00,
2013-06-27 23:22:00,68.0,50.0,-100.00,SSE,149,0.0,6.0,52,0.00,,,0.02,3.000000,,2013-06-28 05:22:00,
2013-06-27 23:53:00,65.0,49.0,-100.00,SE,134,2.0,7.0,56,0.00,,,0.02,0.000000,,2013-06-28 05:53:00,